"Pseudo-MPEC" for ZTF0FaT

Created 2020 Oct 20 1:07:34 UT using Find_Orb

Click here for an explanation of pseudo-MPECs

 
 Astrometry: 
     ZTF0FaT  C2020 10 16.28326422 36 58.32 -00 20 49.9    ~AG7b 14.57RUNEOCPI41
     ZTF0FaT  C2020 10 16.28361122 36 52.99 -00 19 43.5    ~AG7b 14.57RUNEOCPI41
     ZTF0FaT  C2020 10 16.28420122 36 44.35 -00 17 58.2    ~AG7b 14.56RUNEOCPI41
     ZTF0FaT  C2020 10 16.28454922 36 39.10 -00 16 52.9    ~AG7b 14.56RUNEOCPI41

Station data:
(I41) Palomar Mountain--ZTF  (N33.357340 W116.859780)  US/California. 1.2-m
   f/2.44 Oschin Schmidt + CCD.

Orbital elements:  ZTF0FaT
   Perigee 2020 Oct 16.083072 +/- 58.2 TT =  1:59:37 (JD 2459138.583072)
Epoch 2020 Oct 16.0 TT = JDT 2459138.5                        AutoNEOCP
q386463.552 +/- 4.86e+7             (J2000 equator)
H   26.3  G 0.15                    Peri.  344.07307 +/- 90
                                    Node   339.81179 +/- 0.20
e  39.2734198 +/- 0.257             Incl.  138.87259 +/- 33
From 4 observations 2020 Oct. 16 (1.9 min); mean residual 1".07
Residuals in arcseconds: 
201016 I41  .85+  .96-    201016 I41  .81+  1.2-    
201016 I41  1.5-  1.8+    201016 I41  .18-  .34+    

Ephemerides (geocentric):
Date (UTC) HH   RA              Dec         delta   r     elong  mag " sig PA
---- -- -- --  -------------   -----------  ------ ------ -----  --- ---- ---
2020 10 20 01  18 45 48.637   +36 40 44.08  .01469 0.9948  85.6 20.4  35d  10
2020 10 20 02  18 45 19.174   +36 42 55.98  .01483 0.9947  85.5 20.4  35d  10
2020 10 20 03  18 44 50.270   +36 45 04.85  .01498 0.9947  85.4 20.5  35d  10
2020 10 20 04  18 44 21.908   +36 47 10.78  .01513 0.9946  85.3 20.5  35d  10
2020 10 20 05  18 43 54.074   +36 49 13.87  .01528 0.9946  85.2 20.5  35d  10
2020 10 20 06  18 43 26.754   +36 51 14.22  .01543 0.9945  85.1 20.5  35d  10
2020 10 20 07  18 42 59.932   +36 53 11.91  .01558 0.9945  85.0 20.6  35d  10
2020 10 20 08  18 42 33.596   +36 55 07.03  .01573 0.9944  84.9 20.6  35d  10
2020 10 20 09  18 42 07.733   +36 56 59.66  .01588 0.9944  84.8 20.6  35d  10
2020 10 20 10  18 41 42.330   +36 58 49.87  .01603 0.9943  84.8 20.6  35d  10
2020 10 20 11  18 41 17.374   +37 00 37.75  .01618 0.9943  84.7 20.7  35d  10
2020 10 20 12  18 40 52.855   +37 02 23.36  .01633 0.9942  84.6 20.7  35d  10
2020 10 20 13  18 40 28.760   +37 04 06.78  .01648 0.9942  84.5 20.7  35d  10
2020 10 20 14  18 40 05.079   +37 05 48.06  .01662 0.9941  84.4 20.7  35d  10
2020 10 20 15  18 39 41.801   +37 07 27.29  .01677 0.9941  84.3 20.8  35d  10
2020 10 20 16  18 39 18.917   +37 09 04.50  .01692 0.9940  84.2 20.8  35d  10
2020 10 20 17  18 38 56.415   +37 10 39.77  .01707 0.9940  84.1 20.8  35d  10
2020 10 20 18  18 38 34.286   +37 12 13.15  .01722 0.9939  84.1 20.8  35d  10
2020 10 20 19  18 38 12.522   +37 13 44.70  .01737 0.9939  84.0 20.8  35d  10
2020 10 20 20  18 37 51.113   +37 15 14.46  .01752 0.9938  83.9 20.9  35d  10
2020 10 20 21  18 37 30.051   +37 16 42.49  .01767 0.9938  83.8 20.9  35d  10
2020 10 20 22  18 37 09.326   +37 18 08.84  .01782 0.9937  83.7 20.9  35d  10
2020 10 20 23  18 36 48.932   +37 19 33.56  .01797 0.9937  83.7 20.9  35d  10
2020 10 21 00  18 36 28.859   +37 20 56.68  .01812 0.9936  83.6 20.9  35d  10
2020 10 21 01  18 36 09.101   +37 22 18.25  .01827 0.9936  83.5 21.0  35d  10
2020 10 21 02  18 35 49.650   +37 23 38.32  .01842 0.9935  83.4 21.0  35d  10
2020 10 21 03  18 35 30.498   +37 24 56.93  .01857 0.9935  83.4 21.0  35d  10
2020 10 21 04  18 35 11.640   +37 26 14.11  .01872 0.9934  83.3 21.0  35d  10
2020 10 21 05  18 34 53.067   +37 27 29.90  .01886 0.9934  83.2 21.1  35d  10
2020 10 21 06  18 34 34.774   +37 28 44.34  .01901 0.9933  83.2 21.1  35d  10
2020 10 21 07  18 34 16.755   +37 29 57.47  .01916 0.9933  83.1 21.1  35d  10
2020 10 21 08  18 33 59.002   +37 31 09.31  .01931 0.9932  83.0 21.1  35d  10
2020 10 21 09  18 33 41.510   +37 32 19.90  .01946 0.9932  82.9 21.1  35d  10
2020 10 21 10  18 33 24.273   +37 33 29.28  .01961 0.9931  82.9 21.1  35d  10
2020 10 21 11  18 33 07.286   +37 34 37.47  .01976 0.9931  82.8 21.2  35d  10
2020 10 21 12  18 32 50.542   +37 35 44.50  .01991 0.9930  82.8 21.2  35d  10
2020 10 21 13  18 32 34.038   +37 36 50.40  .02006 0.9930  82.7 21.2  35d  10
2020 10 21 14  18 32 17.767   +37 37 55.20  .02021 0.9929  82.6 21.2  35d  10
2020 10 21 15  18 32 01.724   +37 38 58.93  .02036 0.9929  82.6 21.2  35d  10
2020 10 21 16  18 31 45.905   +37 40 01.61  .02051 0.9928  82.5 21.3  35d  10
2020 10 21 17  18 31 30.305   +37 41 03.27  .02066 0.9928  82.4 21.3  35d  10
2020 10 21 18  18 31 14.919   +37 42 03.92  .02081 0.9927  82.4 21.3  35d  10
2020 10 21 19  18 30 59.742   +37 43 03.61  .02096 0.9927  82.3 21.3  35d  10
2020 10 21 20  18 30 44.771   +37 44 02.34  .02111 0.9926  82.3 21.3  35d  10
2020 10 21 21  18 30 30.001   +37 45 00.14  .02126 0.9926  82.2 21.4  35d  10
2020 10 21 22  18 30 15.428   +37 45 57.03  .02141 0.9925  82.1 21.4  35d  10
2020 10 21 23  18 30 01.048   +37 46 53.03  .02156 0.9925  82.1 21.4  35d  10
2020 10 22 00  18 29 46.857   +37 47 48.17  .02171 0.9924  82.0 21.4  35d  10